Location: Aiyekoto
(8.4333°N, 4.3667°E)
Time: 11:21:30
(UTC+00:00)

deb Explorer IX - All Passes

Search period start: 26 September 2020 00:00
Search period end: 06 October 2020 00:00
Orbit: 539 x 1104 km, 38.8° (Epoch: 25 September)

Date Brightness Start Highest point End Pass type
(mag) Time Alt. Az. Time Alt. Az. Time Alt. Az.
26 Sep - 01:12:20 10° NW 01:16:52 48° NE 01:22:11 10° ESE night (unlit)
26 Sep - 02:59:40 10° W 03:03:53 24° SW 03:08:38 10° SSE visible
26 Sep - 13:59:03 10° SSW 14:04:33 34° SE 14:09:19 10° ENE daylight
26 Sep - 15:46:25 10° WSW 15:51:29 35° NW 15:55:51 10° NNE daylight
27 Sep - 00:49:23 10° NW 00:53:47 48° NE 00:58:54 10° ESE night (unlit)
27 Sep - 02:36:45 10° W 02:40:44 23° SW 02:45:13 10° SSE visible
27 Sep - 13:35:40 10° SSW 13:41:24 35° SE 13:46:21 10° ENE daylight
27 Sep - 15:23:08 10° WSW 15:28:22 35° NW 15:32:53 10° NNE daylight
28 Sep - 00:26:25 10° NW 00:30:41 48° NE 00:35:39 10° ESE night (unlit)
28 Sep - 02:13:51 10° W 02:17:37 22° SW 02:21:50 10° S night (unlit)
28 Sep - 13:12:17 10° SSW 13:18:13 37° SE 13:23:22 10° ENE daylight
28 Sep - 14:59:48 10° WSW 15:05:14 36° NW 15:09:54 10° NNE daylight
29 Sep - 00:03:26 10° NW 00:07:38 48° NE 00:12:24 10° ESE night (unlit)
29 Sep - 01:50:58 10° W 01:54:30 20° SW 01:58:28 10° S night (unlit)
29 Sep - 12:48:54 10° SSW 12:55:01 38° SE 13:00:22 10° ENE daylight
29 Sep - 14:36:29 10° WSW 14:42:05 36° NW 14:46:55 10° NNE daylight
29 Sep - 23:40:29 10° NW 23:44:34 48° NE 23:49:11 10° ESE night (unlit)
30 Sep - 01:28:05 10° W 01:31:25 19° SW 01:35:06 10° S night (unlit)
30 Sep - 12:25:30 10° SSW 12:31:49 39° SE 12:37:21 10° ENE daylight
30 Sep - 14:13:08 10° WSW 14:18:55 37° NW 14:23:55 10° NNE daylight
30 Sep - 23:17:29 10° NW 23:21:31 48° NE 23:26:00 10° ESE night (unlit)
01 Oct - 01:05:13 10° W 01:08:19 18° SW 01:11:44 10° S night (unlit)
01 Oct - 12:02:07 10° SSW 12:08:35 41° SE 12:14:18 10° ENE daylight
01 Oct - 13:49:46 10° WSW 13:55:44 37° NW 14:00:54 10° NNE daylight
01 Oct - 22:54:31 10° NW 22:58:28 48° NE 23:02:49 10° ESE night (unlit)
02 Oct - 00:42:21 10° W 00:45:14 17° SW 00:48:23 10° S night (unlit)
02 Oct - 11:38:44 10° SSW 11:45:21 42° SE 11:51:15 10° ENE daylight
02 Oct - 13:26:25 10° WSW 13:32:32 38° NW 13:37:53 10° NNE daylight
02 Oct - 22:31:30 10° NW 22:35:26 49° NE 22:39:40 10° ESE night (unlit)
03 Oct - 00:19:28 10° WSW 00:22:10 16° SW 00:25:02 10° S night (unlit)
03 Oct - 11:15:21 10° SSW 11:22:05 43° SE 11:28:09 10° ENE daylight
03 Oct - 13:03:03 10° WSW 13:09:19 38° NW 13:14:50 10° NNE daylight
03 Oct - 22:08:29 10° NW 22:12:24 49° NE 22:16:32 10° ESE night (unlit)
03 Oct - 23:56:37 10° WSW 23:59:06 15° SW 00:01:44 10° S night (unlit)
04 Oct - 10:51:59 10° SSW 10:58:49 44° SE 11:05:03 10° ENE daylight
04 Oct - 12:39:41 10° WSW 12:46:05 39° NW 12:51:46 10° NNE daylight
04 Oct - 21:45:28 10° NW 21:49:22 50° NE 21:53:26 10° ESE night (unlit)
04 Oct - 23:33:46 10° WSW 23:36:03 14° SW 23:38:25 10° S night (unlit)
05 Oct - 10:28:38 10° SSW 10:35:32 45° SE 10:41:55 10° ENE daylight
05 Oct - 12:16:20 10° WSW 12:22:50 39° NW 12:28:40 10° NNE daylight
05 Oct - 21:22:24 10° NW 21:26:21 51° NE 21:30:21 10° ESE night (unlit)
05 Oct - 23:10:54 10° WSW 23:12:59 13° SW 23:15:08 10° S night (unlit)
